Regional Weather Roundup
Issued by NWS

Home | Current Version | Previous Version | Graphics & Text | Print | Product List | Glossary On
Versions: 1 2 3 4 5 6 7 8 9 10 11 12 13 14 15 16 17 18 19 20 21 22 23 24 25 26 27 28 29 30 31 32 33 34 35 36 37 38 39 40 41 42 43 44 45 46 47 48 49 50
000
ASUS43 KLMK 200302
RWRKY
KENTUCKY REGIONAL WEATHER ROUNDUP
NATIONAL WEATHER SERVICE LOUISVILLE KY
1100 PM EDT SAT APR 19 2014

NOTE "FAIR" INDICATES FEW OR NO CLOUDS BELOW 12,000 FEET
WITH NO SIGNIFICANT WEATHER AND/OR OBSTRUCTIONS TO VISIBILITY.

KYZ001>023-026-027-061>063-070>075-200400-
WESTERN AND SOUTH CENTRAL KENTUCKY

CITY           SKY/WX    TMP DP  RH WIND       PRES   REMARKS
PADUCAH        PTCLDY    61  43  51 CALM      30.17S
HENDERSON      CLEAR     54  46  76 CALM      30.19S
OWENSBORO      CLEAR     63  39  41 NE3       30.20R
HOPKINSVILLE   CLEAR     61  43  51 NE5       30.18R
BOWLING GREEN  CLEAR     56  39  53 CALM      30.19R
GLASGOW        NOT AVBL
$$

KYZ024-025-028>034-038-045-046-053-200400-
NORTH CENTRAL KENTUCKY

CITY           SKY/WX    TMP DP  RH WIND       PRES   REMARKS
LOUISVILLE/SDF PTCLDY    63  36  36 E7        30.21R
LOUISVILLE/LOU CLEAR     64  35  34 NE5       30.22R
FORT KNOX      CLEAR     60  35  39 NE5       30.20R
$$

KYZ035>037-039>044-047>052-055>060-089>105-200400-
NORTHEAST KENTUCKY

CITY           SKY/WX    TMP DP  RH WIND       PRES   REMARKS
LEXINGTON      PTCLDY    55  36  48 NE10      30.22S
COVINGTON      PTCLDY    59  34  39 NE8       30.24S
FRANKFORT      CLEAR     59  33  37 NE6       30.21S
$$

KYZ054-064>069-076>088-106>120-200400-
SOUTHEAST KENTUCKY

CITY           SKY/WX    TMP DP  RH WIND       PRES   REMARKS
JACKSON        MOCLDY    61  31  32 VRB3      30.22R
LONDON         PTCLDY    62  33  33 NE7       30.19R
SOMERSET       NOT AVBL
MIDDLESBORO    NOT AVBL
MONTICELLO     CLEAR     53  41  64 NE6       30.20S
$$




USA.gov is the U.S. government's official web portal to all federal, state and local government web resources and services.